[[{"header":{"parameterUnit":"m.s-1","parameterCategory":1,"la1":30.2991,"la2":30.254,"lo1":-89.0895,"lo2":-89.0444,"dy":0.0017,"dx":0.0017,"nx":28,"ny":28,"refTime":"2025-11-06T09:00:00:Z","depth":0,"parameterNumber":2,"parameterNumberName":"U-component_of_WINDS"},"data":[0,0,0,0,0,0,0,0,0,0,0,0,0,0,0,0,0,0,0,0,0,0,0,0,0,0,0,0,0,0,0,0,0,0,0,0,0,0,0,0,0,0,0,0,0,0,0,0,0,0,0,0,0,0,0,0,0,0,-2.5906,-2.5907,0,-2.5939,-2.5939,-2.594,-2.5897,-2.5895,-2.5894,-2.5892,-2.5923,-2.5925,-2.5928,0,0,0,0,0,0,0,0,0,0,0,0,0,-2.5806,-2.5808,-2.5906,-2.5907,-2.5907,-2.5939,-2.5939,-2.594,-2.5897,-2.5895,-2.5893,-2.5891,-2.5922,-2.5925,-2.5928,0,0,0,0,0,0,0,0,0,0,0,0,0,-2.5845,-2.5809,-2.5906,-2.589,-2.5888,-2.5939,-2.5939,-2.594,-2.5897,-2.5895,-2.5893,-2.5891,-2.5922,-2.5925,-2.5928,-2.5996,0,0,-2.5939,-2.594,0,0,0,0,0,0,0,0,-2.5843,-2.5849,-2.5892,-2.5891,-2.589,-2.5911,-2.5915,-2.5958,-2.5898,-2.5894,-2.5892,-2.5889,-2.5921,-2.5924,-2.5935,-2.5997,-2.5998,-2.5939,-2.5941,-2.5942,-2.5943,0,0,0,0,0,0,0,-2.584,-2.5847,-2.5919,-2.5892,-2.5891,-2.588,-2.5883,-2.5923,-2.592,-2.5894,-2.5891,-2.5896,-2.592,-2.5932,-2.5936,-2.5999,-2.5939,-2.5942,-2.5944,-2.5945,-2.6118,-2.6121,0,0,0,0,0,0,-2.584,-2.5845,-2.5918,-2.592,-2.586,-2.5884,-2.5887,-2.5907,-2.5919,-2.5919,-2.5898,-2.5893,-2.5928,-2.5932,-2.5937,-2.6016,-2.5942,-2.5946,-2.5948,-2.6116,-2.6119,-2.6122,0,0,0,0,0,0,-2.5838,-2.5847,-2.5917,-2.5882,-2.589,-2.5888,-2.591,-2.5909,-2.5921,-2.5922,-2.5921,-2.5911,-2.5926,-2.5932,-2.5982,-2.6017,-2.5947,-2.595,-2.6113,-2.6117,-2.612,-2.6176,0,0,0,0,0,0,-2.5835,-2.5846,-2.5872,-2.5883,-2.5892,-2.5961,-2.5912,-2.5911,-2.5927,-2.5922,-2.5934,-2.5934,-2.5925,-2.5977,-2.5985,-2.602,-2.5953,-2.6109,-2.6114,-2.6119,-2.6171,-2.6181,-2.619,0,0,0,0,0,-2.5832,-2.5885,-2.5873,-2.5882,-2.5924,-2.5963,-2.5968,-2.5957,-2.593,-2.5955,-2.5957,-2.5934,-2.6012,-2.5982,-2.5991,-2.6028,-2.6107,-2.6113,-2.6119,-2.6167,-2.6179,-2.619,0,0,0,0,0,0,-2.5877,-2.5886,-2.5873,-2.5932,-2.5947,-2.5956,-2.5987,-2.5971,-2.5993,-2.5988,-2.5972,-2.5976,-2.6029,-2.6033,-2.6,-2.6094,-2.6055,-2.6063,-2.6089,-2.6101,-2.611,-2.6107,-2.5956,0,0,0,0,0,-2.5894,-2.5926,-2.5932,-2.5984,-2.5992,-2.5989,-2.6006,-2.5996,-2.6011,-2.6017,-2.6022,-2.6037,-2.6065,-2.6083,-2.6109,-2.6173,-2.6174,-2.6202,-2.6212,-2.622,-2.6226,-2.626,-2.6273,-2.614,-2.614,-2.614,0,0,-2.5929,-2.5938,-2.5959,-2.5993,-2.6004,-2.6037,-2.5995,-2.6031,-2.6055,-2.6022,-2.6069,-2.6074,-2.6089,-2.6147,-2.6172,-2.6152,-2.6264,-2.6227,-2.6233,-2.6235,-2.6267,-2.628,-2.6291,-2.6144,-2.6144,-2.6143,0,0,-2.6009,-2.602,-2.6064,-2.6077,-2.6094,-2.6092,-2.6103,-2.6115,-2.6117,-2.6164,-2.6141,-2.617,-2.6218,-2.623,-2.6243,-2.6332,-2.6311,-2.6341,-2.639,-2.6423,-2.6434,-2.6443,-2.6474,-2.6485,-2.6347,-2.6348,-2.6348,0,-2.605,-2.6099,-2.6089,-2.6127,-2.6143,-2.6117,-2.6162,-2.6174,-2.6199,-2.621,-2.6189,-2.625,-2.6259,-2.6318,-2.634,-2.6352,-2.6363,-2.6338,-2.6433,-2.6442,-2.6451,-2.648,-2.6491,-2.6351,-2.6351,-2.635,-2.635,0,-2.6148,-2.6183,-2.6217,-2.6243,-2.6263,-2.6304,-2.63,-2.6321,-2.6311,-2.6311,-2.6361,-2.6371,-2.6399,-2.6413,-2.6402,-2.6471,-2.6459,-2.6436,-2.6395,-2.6467,-2.6494,-2.6505,-2.6356,-2.6355,-2.6354,-2.6353,0,0,-2.6255,-2.6277,-2.6289,-2.6301,-2.632,-2.6346,-2.6387,-2.6416,-2.6434,-2.6453,-2.6487,-2.653,-2.6509,-2.6524,-2.6515,-2.6545,-2.6614,-2.6518,-2.6518,-2.6534,-2.669,-2.6706,-2.672,-2.6602,-2.6604,-2.6606,-2.6689,0,-2.6334,-2.6405,-2.6398,-2.6466,-2.6498,-2.6475,-2.6511,-2.6526,-2.6529,-2.6556,-2.6558,-2.6589,-2.6559,-2.6568,-2.6597,-2.6599,-2.6645,-2.6594,-2.6632,-2.6633,-2.6626,-2.6734,-2.675,-2.6828,-2.6699,-2.6701,-2.6702,0,-2.6436,-2.646,-2.6531,-2.6546,-2.6559,-2.6591,-2.6618,-2.6645,-2.6662,-2.6662,-2.668,-2.6666,-2.6707,-2.6669,-2.6725,-2.6691,-2.6706,-2.671,-2.6713,-2.6714,-2.667,-2.6737,-2.6853,-2.6864,-2.6719,-2.6718,-2.6717,0,-2.6505,-2.6555,-2.6604,-2.6615,-2.6635,-2.6658,-2.6667,-2.6683,-2.6701,-2.6724,-2.6736,-2.6763,-2.6778,-2.68,-2.6794,-2.6767,-2.6852,-2.6813,-2.6852,-2.6852,-2.6869,-2.6867,-2.6988,-2.6882,-2.6882,-2.6882,-2.6882,0,-2.6593,-2.6637,-2.6636,-2.6666,-2.6715,-2.6707,-2.6756,-2.6762,-2.6777,-2.6807,-2.679,-2.6819,-2.6811,-2.684,-2.6837,-2.6884,-2.6891,-2.6891,-2.6889,-2.6891,-2.6891,-2.69,-2.6893,-2.6885,-2.6884,-2.6884,-2.6883,0,-2.6677,-2.6678,-2.673,-2.6746,-2.6751,-2.6786,-2.6799,-2.6827,-2.683,-2.6869,-2.6877,-2.688,-2.6914,-2.6912,-2.6949,-2.6947,-2.7004,-2.6997,-2.6999,-2.6996,-2.7035,-2.7031,-2.7163,-2.718,-2.7066,-2.7067,-2.7068,0,-2.6733,-2.6766,-2.6786,-2.6806,-2.6817,-2.6849,-2.6868,-2.6863,-2.6884,-2.6908,-2.6933,-2.6965,-2.699,-2.7045,-2.705,-2.7079,-2.7071,-2.7116,-2.7075,-2.7077,-2.707,-2.7068,-2.7071,-2.7123,-2.7124,-2.7125,-2.7126,0,-2.683,-2.683,-2.6858,-2.6888,-2.6912,-2.6934,-2.6955,-2.6972,-2.6969,-2.6993,-2.7028,-2.7048,-2.7087,-2.7119,-2.7147,-2.7156,-2.714,-2.7139,-2.715,-2.7151,-2.715,-2.715,-2.7019,-2.7135,-2.7134,-2.7134,-2.7133,-2.7133,-2.6901,-2.693,-2.6949,-2.6981,-2.6997,-2.7018,-2.7045,-2.7052,-2.7081,-2.7113,-2.7109,-2.7147,-2.7166,-2.7202,-2.7214,-2.7244,-2.7228,-2.7243,-2.7247,-2.725,-2.7254,-2.7148,-2.7249,-2.7249,-2.7249,-2.7249,-2.7248,0,-2.6996,-2.7008,-2.7039,-2.7069,-2.7095,-2.7081,-2.7104,-2.7126,-2.7161,-2.718,-2.7206,-2.7246,-2.7278,-2.7287,-2.7317,-2.734,-2.7334,-2.7348,-2.7345,-2.7347,-2.7267,-2.7255,-2.7352,-2.7352,-2.7352,-2.7352,-2.7352,-2.7352,-2.7049,-2.7098,-2.71,-2.7156,-2.7168,-2.7207,-2.7221,-2.724,-2.7255,-2.7301,-2.7328,-2.7334,-2.7349,-2.7381,-2.741,-2.7412,-2.7423,-2.744,-2.7439,-2.7363,-2.7353,-2.7343,-2.7331,-2.7443,-2.7443,-2.7516,-2.7517,-2.7518]},{"header":{"parameterUnit":"m.s-1","parameterCategory":1,"la1":30.2991,"la2":30.254,"lo1":-89.0895,"lo2":-89.0444,"dy":0.0017,"dx":0.0017,"nx":28,"ny":28,"refTime":"2025-11-06T09:00:00:Z","depth":0,"parameterNumber":3,"parameterNumberName":"V-component_of_WINDS"},"data":[0,0,0,0,0,0,0,0,0,0,0,0,0,0,0,0,0,0,0,0,0,0,0,0,0,0,0,0,0,0,0,0,0,0,0,0,0,0,0,0,0,0,0,0,0,0,0,0,0,0,0,0,0,0,0,0,0,0,3.5737,3.5737,0,3.5755,3.5755,3.5756,3.5683,3.5681,3.5679,3.5677,3.5692,3.5695,3.5697,0,0,0,0,0,0,0,0,0,0,0,0,0,3.5639,3.5641,3.5737,3.5737,3.5737,3.5755,3.5755,3.5756,3.5683,3.5681,3.5678,3.5676,3.5692,3.5694,3.5697,0,0,0,0,0,0,0,0,0,0,0,0,0,3.5672,3.5642,3.5737,3.5703,3.5701,3.5755,3.5755,3.5756,3.5684,3.5681,3.5677,3.5674,3.5691,3.5694,3.5698,3.5784,0,0,3.5709,3.571,0,0,0,0,0,0,0,0,3.567,3.5676,3.5708,3.5706,3.5703,3.5714,3.5727,3.5765,3.5685,3.569,3.5677,3.5673,3.5702,3.5704,3.5715,3.5785,3.5785,3.5709,3.5711,3.5713,3.5714,0,0,0,0,0,0,0,3.5668,3.5674,3.5744,3.5709,3.5705,3.5688,3.5689,3.5734,3.5714,3.5689,3.5684,3.5688,3.57,3.5711,3.5714,3.5786,3.5709,3.5712,3.5714,3.5716,3.5931,3.5935,0,0,0,0,0,0,3.567,3.5673,3.5743,3.5744,3.5678,3.5692,3.5693,3.5713,3.5713,3.571,3.569,3.5684,3.5707,3.571,3.5715,3.5818,3.5713,3.5716,3.5718,3.5928,3.5932,3.5936,0,0,0,0,0,0,3.5669,3.5677,3.5743,3.5707,3.5714,3.5697,3.572,3.5715,3.5727,3.5714,3.5709,3.5706,3.5704,3.571,3.5768,3.5817,3.5718,3.5721,3.5924,3.5929,3.5934,3.6023,0,0,0,0,0,0,3.5666,3.5677,3.5709,3.5709,3.5717,3.5796,3.5723,3.5718,3.5734,3.5726,3.5727,3.5724,3.5702,3.5763,3.5772,3.582,3.5724,3.5919,3.5926,3.5932,3.6016,3.6031,3.6044,0,0,0,0,0,3.5663,3.5732,3.5711,3.572,3.5757,3.5799,3.5803,3.5777,3.5738,3.577,3.5763,3.5724,3.5811,3.577,3.5779,3.5829,3.5916,3.5924,3.5932,3.6009,3.6028,3.6044,0,0,0,0,0,0,3.5736,3.5731,3.5708,3.5779,3.5791,3.5787,3.5826,3.5797,3.5819,3.581,3.5777,3.5778,3.5843,3.5842,3.5796,3.5915,3.5856,3.5867,3.5912,3.593,3.5944,3.5942,3.5727,0,0,0,0,0,3.5761,3.5797,3.579,3.5854,3.5861,3.5844,3.5861,3.5841,3.585,3.5854,3.585,3.586,3.589,3.591,3.5936,3.6016,3.6016,3.6055,3.607,3.6081,3.609,3.6134,3.6152,3.5962,3.5962,3.5962,0,0,3.5812,3.5814,3.5838,3.5869,3.5875,3.5913,3.5847,3.5889,3.5917,3.586,3.5915,3.5914,3.5923,3.5994,3.6024,3.5995,3.6143,3.6091,3.6101,3.6103,3.6145,3.6163,3.6179,3.5968,3.5967,3.5966,0,0,3.5924,3.5929,3.5984,3.5993,3.6004,3.5993,3.6007,3.6008,3.6006,3.6062,3.6021,3.6053,3.6105,3.6114,3.6125,3.6247,3.6213,3.6257,3.633,3.6374,3.6389,3.6402,3.6446,3.6462,3.6266,3.6266,3.6267,0,3.5985,3.6041,3.6015,3.6061,3.6077,3.603,3.6086,3.6096,3.6115,3.6127,3.6094,3.616,3.6163,3.6236,3.6267,3.6277,3.6292,3.6255,3.6389,3.6402,3.6413,3.6455,3.6472,3.6272,3.6271,3.627,3.627,0,3.6117,3.6157,3.62,3.6222,3.6243,3.6293,3.6276,3.63,3.628,3.6272,3.6332,3.6334,3.6362,3.6378,3.6357,3.645,3.6431,3.6395,3.6335,3.6437,3.6476,3.6492,3.6279,3.6277,3.6276,3.6274,0,0,3.6271,3.6283,3.6299,3.631,3.6322,3.6352,3.6402,3.6431,3.6453,3.6469,3.6511,3.6558,3.6525,3.6539,3.6519,3.6558,3.6656,3.6516,3.6516,3.6542,3.676,3.6788,3.6807,3.6635,3.6638,3.664,3.676,0,3.6382,3.6468,3.6449,3.6534,3.6572,3.6531,3.6574,3.6587,3.6583,3.6614,3.6608,3.6643,3.6596,3.6605,3.6641,3.6636,3.6699,3.6628,3.6673,3.6675,3.6671,3.6827,3.6855,3.6967,3.6775,3.6777,3.6779,0,3.6521,3.6546,3.6636,3.6646,3.666,3.67,3.6727,3.6758,3.6772,3.6766,3.6784,3.6758,3.6809,3.6751,3.682,3.6772,3.679,3.6791,3.6795,3.6797,3.6732,3.6833,3.7002,3.7019,3.6802,3.6801,3.6799,0,3.6626,3.6682,3.6743,3.6754,3.6767,3.6796,3.6803,3.6814,3.6834,3.6858,3.6871,3.69,3.6916,3.6939,3.6922,3.6881,3.6995,3.6935,3.6992,3.6992,3.7016,3.7014,3.719,3.7029,3.7028,3.7028,3.7028,0,3.6751,3.6807,3.6791,3.6829,3.6892,3.6871,3.6934,3.6935,3.6947,3.6985,3.6951,3.6987,3.6963,3.6997,3.6985,3.7045,3.7052,3.7049,3.7045,3.7052,3.7053,3.7062,3.7054,3.7033,3.7032,3.7031,3.703,0,3.6877,3.6868,3.6933,3.6942,3.6946,3.6992,3.6999,3.7035,3.703,3.7079,3.7089,3.7081,3.712,3.7107,3.7147,3.7139,3.7217,3.7202,3.7213,3.7209,3.7267,3.7262,3.7454,3.7479,3.7302,3.7303,3.7305,0,3.6957,3.7,3.7015,3.7039,3.7049,3.7088,3.7109,3.7091,3.7115,3.7138,3.7171,3.7208,3.7236,3.7301,3.7299,3.7331,3.7317,3.7383,3.7321,3.7328,3.7319,3.7317,3.7321,3.7394,3.7396,3.7398,3.7399,0,3.71,3.7095,3.7128,3.7162,3.7189,3.7214,3.7235,3.7257,3.7241,3.727,3.7311,3.7333,3.7378,3.7415,3.7446,3.7451,3.7424,3.742,3.7434,3.7441,3.7446,3.7445,3.7246,3.7414,3.7413,3.7412,3.7411,3.741,3.7205,3.7243,3.7261,3.73,3.7316,3.7338,3.7373,3.7375,3.741,3.7446,3.7433,3.7481,3.7498,3.7536,3.7547,3.7584,3.7558,3.7579,3.7585,3.759,3.7598,3.7441,3.7589,3.7589,3.7588,3.7588,3.7587,0,3.7347,3.7358,3.7394,3.7428,3.746,3.7434,3.7458,3.7485,3.7529,3.7548,3.7578,3.7627,3.7665,3.7667,3.7702,3.7732,3.772,3.7742,3.7739,3.7741,3.7618,3.7602,3.7751,3.7751,3.7751,3.7751,3.7751,3.7751,3.7424,3.7488,3.7486,3.7558,3.7568,3.7617,3.7633,3.7654,3.7669,3.7727,3.7759,3.7761,3.7774,3.7811,3.7845,3.7845,3.7859,3.7886,3.7881,3.7766,3.775,3.7734,3.7719,3.7889,3.789,3.8001,3.8002,3.8003]}]]